GW5693 Weather Reports


time (UTC)temp
F
wind
direction
speed
knots
gust
knots
rain 1hr
in
rain 24hr
in
rain mn
in
humidity
%
barometer
mb
20260508002306 57 211 0.0 0.9 0.00 0.12 0.08 81 1010.6
20260508001804 57 201 0.0 0.9 0.00 0.12 0.08 81 1010.5
20260508001304 57 153 0.0 0.0 0.00 0.12 0.08 80 1010.5
20260508000804 58 153 0.0 0.0 0.00 0.12 0.08 78 1010.3
20260508000305 59 153 0.0 0.0 0.00 0.12 0.08 76 1010.2
20260507235804 60 162 0.0 0.0 0.00 0.12 0.08 75 1010.1
20260507235306 60 162 0.0 0.9 0.00 0.12 0.08 75 1010.0
20260507234804 61 296 0.0 0.9 0.00 0.12 0.08 74 1009.9
20260507234304 61 218 0.0 0.9 0.00 0.12 0.08 74 1009.8
20260507233803 61 290 0.0 0.9 0.00 0.12 0.08 74 1009.8
20260507233303 61 312 0.0 0.9 0.00 0.12 0.08 74 1009.8
20260507232803 61 253 0.0 2.6 0.00 0.12 0.08 73 1009.7
20260507231803 61 269 0.9 2.6 0.00 0.12 0.08 75 1009.5
20260507231303 61 307 0.0 0.9 0.00 0.12 0.08 76 1009.5
20260507230804 60 12 0.9 4.3 0.00 0.12 0.08 76 1009.5
20260507230303 59 94 0.0 0.9 0.00 0.12 0.08 78 1009.4
20260507225306 59 17 0.0 0.9 0.00 0.12 0.08 76 1009.3
20260507224803 59 237 0.0 0.9 0.00 0.12 0.08 76 1009.2
20260507223304 60 142 0.0 0.9 0.00 0.12 0.08 75 1009.1
20260507222803 60 89 0.9 2.6 0.00 0.12 0.08 73 1009.0
20260507222306 61 93 0.9 2.6 0.00 0.12 0.08 74 1008.8
20260507221804 61 102 0.9 1.7 0.00 0.12 0.08 73 1008.8
20260507221304 61 150 0.0 0.0 0.00 0.12 0.08 72 1008.8
20260507220803 62 240 0.0 1.7 0.00 0.12 0.08 71 1008.7
20260507220304 62 286 0.9 2.6 0.00 0.12 0.08 70 1008.6
20260507215804 64 162 0.9 2.6 0.00 0.12 0.08 68 1008.6
20260507215306 65 77 0.9 1.7 0.00 0.12 0.08 66 1008.7
20260507214804 66 105 0.9 2.6 0.00 0.12 0.08 63 1008.6
20260507214304 67 283 0.9 4.3 0.00 0.12 0.08 60 1008.6
20260507213805 67 96 0.9 7.8 0.00 0.12 0.08 60 1008.5
20260507213304 67 49 0.9 7.0 0.00 0.12 0.08 63 1008.6
20260507212804 67 325 0.9 2.6 0.00 0.12 0.08 62 1008.6
20260507211804 68 323 0.0 4.3 0.00 0.12 0.08 60 1008.5
20260507211303 69 18 0.9 2.6 0.00 0.12 0.08 58 1008.5
20260507210804 68 101 0.9 2.6 0.00 0.12 0.08 59 1008.5
20260507210303 68 190 0.9 0.9 0.00 0.12 0.08 61 1008.6
20260507205804 68 244 1.7 2.6 0.00 0.12 0.08 59 1008.4
20260507205306 67 192 0.9 2.6 0.00 0.12 0.08 64 1008.4
20260507204804 66 281 0.9 2.6 0.00 0.12 0.08 61 1008.4
20260507204303 65 224 0.0 2.6 0.00 0.12 0.08 65 1008.5
20260507203804 64 328 0.9 5.2 0.00 0.12 0.08 67 1008.6
20260507203303 64 208 0.0 0.9 0.00 0.12 0.08 64 1008.6
20260507202803 64 221 0.0 0.0 0.00 0.12 0.08 64 1008.6
20260507201804 63 190 0.0 1.7 0.00 0.12 0.08 67 1008.7
20260507201304 63 321 1.7 2.6 0.00 0.12 0.08 67 1008.8
20260507200804 63 225 0.0 1.7 0.00 0.12 0.08 67 1008.9
20260507200304 63 186 1.7 2.6 0.00 0.12 0.08 66 1009.0
20260507195804 63 207 0.0 2.6 0.00 0.12 0.08 68 1009.0
20260507195305 63 314 0.9 1.7 0.00 0.12 0.08 69 1009.0
20260507194804 63 95 0.9 1.7 0.00 0.12 0.08 68 1009.2
20260507194303 63 302 0.9 1.7 0.00 0.12 0.08 68 1009.3
20260507193303 63 216 0.0 0.9 0.00 0.12 0.08 69 1009.5
20260507192804 63 170 0.0 0.9 0.00 0.12 0.08 69 1009.4
20260507192306 63 244 0.0 0.9 0.00 0.12 0.08 71 1009.6
20260507191803 62 216 0.0 0.9 0.00 0.12 0.08 74 1009.8
20260507191303 61 248 0.0 0.9 0.00 0.12 0.08 75 1009.7
20260507185804 60 226 0.0 1.7 0.01 0.12 0.08 74 1010.0
20260507185305 60 68 0.0 1.7 0.01 0.12 0.08 77 1010.0
20260507184804 59 95 0.0 0.9 0.01 0.12 0.08 79 1010.1
20260507184304 58 16 0.0 0.9 0.01 0.12 0.08 81 1009.9
20260507183804 57 16 0.0 1.7 0.01 0.12 0.08 81 1010.0
20260507183305 57 17 0.0 1.7 0.01 0.12 0.08 80 1010.1
20260507182307 57 12 0.0 0.0 0.01 0.12 0.08 81 1010.3
20260507181804 57 12 0.0 0.9 0.01 0.12 0.08 80 1010.3
20260507181304 57 318 0.0 0.9 0.01 0.12 0.08 79 1010.3
20260507180804 57 283 0.0 0.9 0.01 0.12 0.08 79 1010.3
20260507180304 58 215 0.0 0.9 0.02 0.12 0.08 78 1010.4
20260507175804 58 92 0.0 0.9 0.01 0.11 0.07 78 1010.3
20260507175307 58 23 0.0 0.9 0.01 0.11 0.07 79 1010.3
20260507174804 58 19 0.0 0.9 0.01 0.11 0.07 80 1010.4
20260507174304 57 19 0.0 0.9 0.01 0.11 0.07 80 1010.5
20260507173804 57 18 0.0 0.9 0.01 0.11 0.07 80 1010.6
20260507173303 56 19 0.0 0.9 0.01 0.11 0.07 82 1010.6
20260507172804 56 19 0.0 0.9 0.01 0.11 0.07 82 1010.6
20260507171303 56 9 0.0 0.9 0.01 0.11 0.07 82 1010.8
20260507170804 56 9 0.0 0.9 0.01 0.11 0.07 82 1010.9
20260507165804 56 37 0.0 0.9 0.00 0.10 0.06 79 1011.2
20260507165306 56 224 0.0 0.9 0.00 0.10 0.06 80 1011.5
20260507164803 56 280 0.0 0.9 0.00 0.10 0.06 81 1011.4
20260507164303 56 294 0.0 0.9 0.00 0.10 0.06 81 1011.3
20260507163804 56 11 0.0 0.9 0.00 0.10 0.06 81 1011.3
20260507163304 56 232 0.0 0.9 0.00 0.10 0.06 82 1011.5
20260507162306 55 252 0.0 0.0 0.00 0.10 0.06 82 1011.7
20260507161804 55 252 0.0 0.9 0.00 0.10 0.06 82 1011.8
20260507161303 55 247 0.9 0.9 0.00 0.10 0.06 81 1011.9
20260507160803 55 335 0.0 0.0 0.00 0.10 0.06 83 1011.8
20260507160304 55 335 0.9 1.7 0.01 0.10 0.06 81 1011.7
20260507155805 55 105 0.0 0.9 0.02 0.10 0.06 82 1011.9
20260507155306 55 162 0.0 1.7 0.03 0.10 0.06 83 1011.9
20260507154804 54 248 0.9 1.7 0.03 0.10 0.06 85 1011.9
20260507154304 54 5 0.9 2.6 0.03 0.10 0.06 84 1012.0
20260507153803 54 72 0.0 1.7 0.03 0.10 0.06 84 1012.1
20260507153304 54 150 0.9 2.6 0.04 0.10 0.06 84 1012.1
20260507152804 54 117 0.0 0.9 0.04 0.10 0.06 85 1012.1
20260507152306 54 148 0.0 0.9 0.04 0.10 0.06 84 1012.2
20260507151804 54 219 0.0 2.6 0.04 0.10 0.06 84 1012.3
20260507151304 54 116 0.0 0.9 0.04 0.10 0.06 85 1012.3
20260507150803 54 198 0.0 0.0 0.05 0.10 0.06 85 1012.2
20260507150304 54 228 0.0 0.9 0.04 0.09 0.05 86 1012.0
20260507145804 53 208 0.0 0.9 0.03 0.08 0.04 84 1012.2
20260507145306 54 208 0.0 0.9 0.02 0.07 0.03 84 1012.5
20260507144803 54 207 0.0 0.9 0.02 0.07 0.03 84 1012.1
20260507144304 54 207 0.0 0.9 0.02 0.07 0.03 83 1011.9
20260507143804 54 238 0.0 0.9 0.02 0.07 0.03 83 1011.9
20260507143305 54 115 0.0 0.9 0.01 0.06 0.02 82 1012.0
20260507142805 54 327 0.0 1.7 0.01 0.06 0.02 82 1012.2
20260507142306 54 330 0.9 2.6 0.01 0.06 0.02 81 1012.2
20260507141804 54 70 0.0 0.0 0.01 0.06 0.02 80 1012.3
20260507141303 54 89 0.0 1.7 0.01 0.06 0.02 80 1012.3
20260507140804 54 217 0.0 0.9 0.00 0.05 0.01 78 1012.5
20260507140304 54 201 0.0 0.9 0.00 0.05 0.01 79 1012.6
20260507135804 55 250 0.0 0.9 0.00 0.05 0.01 79 1012.6
20260507135306 55 230 0.9 1.7 0.00 0.05 0.01 78 1012.5
20260507134304 55 151 0.0 0.9 0.00 0.05 0.01 78 1012.6
20260507133804 55 149 0.0 0.0 0.00 0.05 0.01 78 1012.5
20260507133304 55 149 0.0 0.0 0.00 0.05 0.01 78 1012.5
20260507132805 55 198 0.0 0.9 0.00 0.05 0.01 78 1012.6
20260507131804 55 238 0.0 0.0 0.00 0.05 0.01 79 1012.6
20260507131304 55 238 0.0 0.9 0.00 0.06 0.01 79 1012.5
20260507130804 55 238 0.0 1.7 0.00 0.06 0.01 78 1012.4
20260507130304 55 124 0.0 1.7 0.00 0.06 0.01 78 1012.4
20260507125804 55 108 0.0 1.7 0.00 0.06 0.01 79 1012.5
20260507125306 55 108 0.0 1.7 0.00 0.06 0.01 79 1012.5
20260507124804 55 240 0.0 0.0 0.00 0.06 0.01 80 1012.4
20260507124304 55 240 0.0 0.9 0.00 0.06 0.01 80 1012.4
20260507123803 55 281 0.0 0.9 0.00 0.06 0.01 80 1012.3
20260507123304 55 296 0.0 0.9 0.00 0.06 0.01 81 1012.2
20260507122803 55 92 0.9 1.7 0.00 0.07 0.01 81 1012.2
20260507122307 54 322 0.0 0.9 0.00 0.07 0.01 81 1012.3
20260507121804 54 288 0.9 1.7 0.00 0.08 0.01 81 1012.2
20260507121304 54 238 0.9 1.7 0.00 0.08 0.01 82 1012.3
20260507120804 54 132 0.0 0.9 0.00 0.08 0.01 82 1012.3
20260507120304 54 219 0.9 1.7 0.00 0.08 0.01 83 1012.3
20260507115804 54 242 0.0 1.7 0.00 0.08 0.01 83 1012.2
20260507115307 54 241 0.9 1.7 0.00 0.08 0.01 83 1012.2
20260507114804 54 225 0.0 0.9 0.00 0.09 0.01 84 1012.0
20260507113803 54 224 0.9 0.9 0.00 0.09 0.01 84 1012.2
20260507113304 54 257 0.9 1.7 0.00 0.09 0.01 84 1012.1
20260507112803 54 14 0.9 2.6 0.00 0.09 0.01 84 1012.0
20260507112307 54 32 0.0 0.9 0.00 0.09 0.01 85 1011.9
20260507111803 54 32 0.0 0.9 0.00 0.09 0.01 85 1011.8
20260507111304 54 74 0.0 1.7 0.00 0.09 0.01 85 1011.8
20260507110803 54 75 0.0 0.9 0.00 0.09 0.01 85 1011.8
20260507110303 54 19 0.0 1.7 0.00 0.09 0.01 85 1011.8
20260507105804 54 262 0.0 1.7 0.00 0.09 0.01 85 1011.7
20260507105306 54 358 0.9 2.6 0.00 0.09 0.01 85 1011.4
20260507104804 54 141 0.0 0.9 0.00 0.09 0.01 85 1011.6
20260507104303 55 205 0.9 1.7 0.00 0.09 0.01 85 1011.4
20260507103803 55 207 0.9 2.6 0.00 0.09 0.01 86 1011.3
20260507103303 55 257 0.0 1.7 0.00 0.09 0.01 86 1011.3
20260507102803 55 253 0.0 0.0 0.00 0.09 0.01 86 1011.2
20260507102306 55 253 0.0 0.9 0.00 0.09 0.01 86 1011.4
20260507101303 55 159 0.0 0.9 0.00 0.09 0.01 86 1011.1
20260507100804 55 128 0.0 0.9 0.00 0.09 0.01 86 1011.1
20260507100303 55 240 0.0 0.9 0.00 0.09 0.01 86 1011.2
20260507095803 55 273 0.0 0.9 0.00 0.09 0.01 86 1011.2
20260507095305 55 273 0.0 0.9 0.00 0.09 0.01 86 1011.2
20260507092306 56 124 0.0 0.9 0.00 0.09 0.01 87 1010.9
20260507091803 56 188 0.0 0.9 0.00 0.09 0.01 87 1010.7
20260507091303 56 266 0.9 1.7 0.00 0.09 0.01 87 1011.0
20260507090803 56 238 0.0 0.9 0.00 0.09 0.01 87 1011.0
20260507090303 56 239 0.0 1.7 0.00 0.09 0.01 87 1011.0
20260507085803 56 84 0.9 4.3 0.00 0.09 0.01 87 1010.9
20260507085306 56 98 0.9 1.7 0.00 0.09 0.01 87 1011.0
20260507084303 57 1 0.9 1.7 0.00 0.09 0.01 87 1010.8
20260507083804 57 245 0.9 1.7 0.00 0.09 0.01 87 1010.6
20260507083304 57 317 0.0 4.3 0.00 0.09 0.01 87 1010.5
20260507082803 57 96 0.9 1.7 0.00 0.09 0.01 86 1010.4
20260507082306 58 127 0.9 2.6 0.00 0.09 0.01 86 1010.4
20260507081804 58 7 0.9 1.7 0.00 0.09 0.01 86 1010.4
20260507081303 58 47 0.9 1.7 0.00 0.09 0.01 86 1010.5
20260507080803 59 68 0.0 1.7 0.00 0.09 0.01 86 1010.5
20260507080303 59 35 0.0 2.6 0.00 0.09 0.01 85 1010.6
20260507075804 60 50 0.9 5.2 0.00 0.09 0.01 85 1010.4
20260507075307 60 66 1.7 4.3 0.00 0.09 0.01 84 1010.3
20260507074304 61 79 0.9 0.9 0.00 0.09 0.01 84 1010.2
20260507073804 61 357 0.9 1.7 0.00 0.09 0.01 83 1009.9
20260507073303 61 276 0.0 0.9 0.00 0.09 0.01 83 1010.2
20260507072805 61 234 0.0 1.7 0.00 0.09 0.01 83 1010.1
20260507072306 61 276 0.9 2.6 0.00 0.09 0.01 84 1010.2
20260507071803 61 263 0.9 1.7 0.00 0.09 0.01 84 1010.1
20260507071304 61 294 0.0 0.9 0.00 0.09 0.01 84 1010.1
20260507070803 61 260 0.0 0.9 0.00 0.09 0.01 84 1009.8
20260507070304 61 260 0.0 0.0 0.00 0.09 0.01 83 1009.8
20260507065804 62 260 0.0 0.9 0.00 0.09 0.01 83 1009.8
20260507064303 62 255 0.0 2.6 0.00 0.09 0.01 83 1009.7
20260507063803 62 284 0.0 2.6 0.00 0.09 0.01 83 1009.6
20260507063303 62 213 0.0 1.7 0.00 0.09 0.01 83 1009.7
20260507062803 62 254 1.7 2.6 0.00 0.09 0.01 84 1009.6
20260507062306 62 257 0.9 1.7 0.00 0.09 0.01 85 1009.8
20260507061803 62 247 0.9 1.7 0.00 0.09 0.01 85 1010.0
20260507061303 63 272 0.0 0.9 0.00 0.09 0.01 86 1010.1
20260507060803 63 238 0.0 0.9 0.00 0.09 0.01 86 1010.1
20260507055804 63 249 0.9 2.6 0.00 0.09 0.01 87 1010.1
20260507055306 63 265 0.9 1.7 0.00 0.09 0.01 89 1010.2
20260507054304 63 258 0.0 0.9 0.00 0.09 0.01 89 1010.3
20260507053804 63 258 0.0 0.9 0.00 0.09 0.01 89 1010.2
20260507053303 63 259 0.0 0.9 0.00 0.09 0.01 89 1010.3
20260507052803 63 253 0.0 0.9 0.00 0.09 0.01 89 1010.3
20260507052306 63 266 0.0 0.9 0.00 0.09 0.01 89 1010.2
20260507051804 64 266 0.0 0.9 0.00 0.09 0.01 89 1010.2
20260507051304 64 236 0.0 0.9 0.00 0.09 0.01 89 1009.9
20260507050304 64 305 0.0 0.9 0.01 0.09 0.01 89 1009.5
20260507044305 64 283 0.0 0.0 0.02 0.09 0.01 88 1008.3
20260507043804 64 283 0.0 0.9 0.02 0.09 0.01 88 1008.5
20260507043304 64 283 0.0 0.9 0.02 0.09 0.01 88 1008.8
20260507042804 64 269 0.0 1.7 0.02 0.09 0.01 88 1009.4
20260507041804 65 252 0.9 1.7 0.02 0.09 0.01 88 1009.7
20260507041303 65 285 0.9 2.6 0.02 0.09 0.01 88 1009.8
20260507040804 65 226 0.0 0.9 0.02 0.08 0.00 88 1009.5
20260507035804 65 211 0.9 1.7 0.01 0.07 0.07 87 1009.9
20260507035306 65 172 0.0 1.7 0.01 0.07 0.07 87 1009.8
20260507034304 65 288 0.9 2.6 0.01 0.07 0.07 87 1009.8
20260507033803 66 252 0.0 2.6 0.02 0.07 0.07 86 1009.7
20260507033305 66 345 0.9 1.7 0.03 0.07 0.07 86 1009.9
20260507032803 66 239 0.9 2.6 0.03 0.07 0.07 86 1009.9
20260507032305 66 236 0.0 0.9 0.03 0.07 0.07 86 1010.0
20260507031804 66 240 0.9 1.7 0.03 0.07 0.07 86 1010.4
20260507031303 66 255 0.0 1.7 0.03 0.07 0.07 85 1010.2
20260507030804 66 232 0.0 0.9 0.02 0.06 0.06 85 1010.1
20260507030303 66 232 0.0 1.7 0.02 0.06 0.06 85 1010.0
20260507025306 67 13 0.0 0.9 0.02 0.06 0.06 84 1010.1
20260507024804 67 218 0.0 0.9 0.02 0.06 0.06 83 1009.5
20260507024303 67 245 0.9 1.7 0.02 0.06 0.06 82 1009.8
20260507023803 67 250 0.0 1.7 0.01 0.05 0.05 81 1009.8
20260507023304 67 252 0.9 2.6 0.00 0.04 0.04 81 1009.6
20260507022803 68 233 0.0 0.9 0.00 0.04 0.04 80 1009.7
20260507021804 68 270 0.0 0.9 0.00 0.04 0.04 78 1009.7
20260507021303 68 37 0.0 0.9 0.00 0.04 0.04 78 1009.4
20260507020803 68 70 0.0 0.9 0.00 0.04 0.04 78 1009.3
20260507015805 68 249 0.0 0.9 0.00 0.04 0.04 77 1009.0
20260507015306 68 249 0.0 0.9 0.00 0.04 0.04 77 1009.0
20260507014803 68 217 0.0 0.9 0.00 0.04 0.04 76 1008.7
20260507014304 68 217 0.0 0.0 0.00 0.04 0.04 76 1008.4
20260507013804 69 217 0.0 0.0 0.00 0.04 0.04 75 1008.5
20260507012804 69 223 0.0 0.9 0.00 0.04 0.04 75 1009.0
20260507012306 69 219 0.0 0.9 0.00 0.04 0.04 75 1009.0
20260507011804 69 219 0.0 0.9 0.00 0.04 0.04 75 1009.0
20260507011303 69 293 0.0 0.9 0.00 0.04 0.04 75 1009.0
20260507010803 69 337 0.0 0.0 0.00 0.04 0.04 75 1009.1
20260507010303 70 337 0.0 0.0 0.00 0.04 0.04 74 1009.1
20260507005305 70 326 0.0 0.0 0.00 0.04 0.04 74 1009.3
20260507004804 70 326 0.0 0.0 0.00 0.04 0.04 74 1009.3
20260507004304 70 326 0.0 0.0 0.00 0.04 0.04 73 1009.3
20260507003804 70 326 0.0 0.0 0.00 0.04 0.04 73 1009.1
20260507003304 70 326 0.0 0.9 0.00 0.04 0.04 73 1009.2
20260507002804 70 330 0.0 0.9 0.00 0.04 0.04 73 1009.3